Wind_Speed
25 25 24 22 20 19 19 20 21 22 23 24 24 24 24 23 21 19 17 15 14 13 13 16 19 21 23 24 24 23 23 23 23 22 21 20 20 19 19 19 19 19 19 18 17 17 17 17 17 15 14 14 14 14 13 13 13 14 14 15 16 17 18 18 18 19 18 16 16 16 19 21 22 23 22 21 22 23 24 26 27 30 32 34 35 32 31
26 26 25 23 21 19 18 17 18 19 21 23 24 24 24 24 23 21 19 17 16 15 15 16 19 21 23 22 22 23 24 24 23 22 21 20 19 19 19 19 19 19 18 17 17 17 17 17 15 14 14 14 14 13 13 13 12 13 13 14 15 16 17 18 18 18 18 18 16 16 19 22 23 24 23 22 22 22 24 26 26 28 30 32 35 33 31
28 27 27 25 23 21 19 18 17 17 18 20 23 24 25 25 25 24 22 20 19 18 16 17 20 22 22 22 24 25 24 23 22 22 21 20 19 19 19 18 18 18 17 17 17 16 16 16 15 14 14 14 14 13 12 12 11 12 12 12 14 15 16 17 17 18 19 19 17 16 17 21 23 24 23 23 22 22 23 25 26 29 30 30 33 32 30
30 29 29 27 26 24 23 21 18 17 16 17 20 23 25 26 26 26 24 22 21 20 19 20 21 22 22 23 25 25 24 24 24 24 22 21 20 19 19 18 18 17 17 17 16 16 17 16 15 15 14 15 14 13 12 12 12 11 11 11 13 14 15 16 17 17 18 17 16 15 16 18 21 22 23 23 23 22 23 24 26 30 31 30 32 31 30
33 31 31 30 28 26 26 24 22 20 18 16 17 20 24 26 27 28 27 25 24 23 23 22 22 23 24 25 25 25 26 26 25 24 23 22 21 21 21 20 18 18 18 17 17 17 17 16 16 16 15 15 15 14 13 12 12 12 10 10 12 13 13 15 16 16 17 17 15 15 16 16 17 20 22 23 23 23 23 24 26 28 30 32 31 31 32
36 34 33 33 31 29 28 27 25 23 20 17 15 16 20 25 27 29 29 28 27 26 26 25 25 26 26 26 27 27 27 27 26 26 25 25 24 24 23 21 19 19 18 18 18 18 17 17 17 17 17 16 16 15 14 13 13 12 11 11 12 12 11 13 15 16 17 17 16 15 15 15 16 18 21 22 23 24 23 25 27 27 29 30 28 30 34
39 38 36 35 34 32 31 29 28 26 24 21 17 15 17 21 26 29 30 30 30 29 29 28 28 29 28 29 30 29 29 29 29 27 27 28 27 26 24 22 21 21 20 20 20 18 17 18 19 19 18 17 16 14 14 14 13 13 12 12 12 12 11 11 14 16 17 17 16 15 15 16 16 18 20 22 24 24 23 24 26 27 30 30 28 30 33
41 40 39 38 37 35 34 32 30 28 27 25 22 18 16 17 21 26 30 32 32 32 31 31 32 32 31 33 33 31 31 32 31 30 31 31 29 27 26 26 25 24 23 23 21 19 18 18 19 20 19 17 15 13 13 14 13 14 14 13 13 13 11 11 12 14 16 16 15 15 15 16 16 17 19 22 24 24 24 24 25 27 29 31 31 32 33
42 42 42 41 40 38 37 35 33 31 30 29 27 24 21 18 17 21 25 30 33 34 34 34 35 35 35 36 35 33 35 35 33 33 34 32 31 31 30 29 28 27 29 26 21 21 22 18 19 21 20 18 16 13 12 13 12 14 16 14 13 14 13 11 9 10 13 15 15 15 15 15 16 16 19 22 23 24 24 24 24 25 28 32 34 34 33
46 44 44 43 43 41 40 39 37 35 32 31 31 29 26 23 21 19 20 24 30 34 36 36 36 36 38 38 38 38 38 36 35 36 37 35 33 33 32 31 32 33 32 26 21 25 27 21 21 25 24 22 18 14 14 14 12 15 17 16 15 16 15 12 9 10 12 13 13 14 14 15 16 17 19 21 23 24 24 24 23 24 27 31 34 33 31
50 48 47 46 45 44 43 42 40 38 36 34 34 33 31 29 27 24 22 22 24 27 32 36 38 38 39 39 40 41 40 38 39 41 39 36 34 34 34 36 37 36 32 26 26 31 31 26 27 29 27 24 21 17 16 17 17 18 18 17 18 17 16 13 10 11 13 12 12 13 14 15 15 16 18 20 23 24 23 23 23 23 25 28 30 29 28
51 51 50 49 48 47 46 45 43 42 40 38 37 36 34 32 31 29 28 26 24 24 26 30 34 37 40 40 41 41 41 40 42 43 40 37 38 38 40 41 39 36 32 31 34 36 34 31 32 30 27 26 25 22 18 17 21 24 22 20 19 16 14 14 12 11 12 13 13 13 15 15 13 13 15 17 20 22 23 24 24 23 25 26 26 27 28
52 53 53 51 51 50 49 48 46 45 43 41 40 39 36 35 34 32 31 30 29 27 26 26 28 31 35 38 41 43 42 41 42 43 41 40 40 42 43 42 39 36 34 37 40 40 36 33 33 31 29 29 28 26 22 21 25 28 27 26 24 19 16 15 13 12 13 14 14 14 15 14 13 11 11 12 15 18 21 24 24 24 25 24 25 26 25
54 54 54 53 52 52 51 50 49 47 46 43 42 41 40 38 36 34 34 33 31 29 28 28 27 27 29 32 35 38 41 42 43 45 44 42 42 44 43 41 39 38 39 41 43 40 36 35 35 33 31 30 28 27 27 27 29 30 30 28 25 23 19 16 15 14 16 17 15 14 15 14 14 12 10 10 12 13 17 20 21 23 24 23 22 22 21
57 56 56 54 53 53 52 52 51 50 49 46 44 43 42 41 39 37 36 34 32 30 29 28 28 28 29 30 31 32 35 38 42 45 45 44 45 45 43 42 42 42 41 42 42 40 37 37 37 34 32 32 31 30 31 32 31 31 30 28 26 24 21 17 16 16 18 18 17 16 17 16 15 14 11 10 10 11 16 18 17 18 20 18 17 18 18
59 59 58 56 55 54 53 53 52 51 51 49 47 45 44 43 42 40 38 37 35 32 30 30 31 32 32 31 30 30 31 33 36 39 41 43 46 46 45 45 45 43 43 44 43 41 40 39 38 36 35 34 34 32 31 31 29 28 28 27 26 25 22 19 18 18 19 21 20 20 20 18 17 16 12 10 12 15 18 16 14 15 15 11 11 13 14
62 61 61 59 58 56 54 53 53 53 52 51 49 47 46 45 44 42 41 39 36 34 33 35 36 34 33 30 27 28 31 32 33 34 35 39 43 45 46 47 47 45 46 47 46 44 43 42 40 40 38 37 36 34 32 31 28 27 28 28 26 25 23 21 20 19 20 21 23 23 22 20 20 17 12 12 15 16 15 12 13 15 14 9 6 6 7
65 64 63 62 60 59 57 54 53 54 54 54 52 50 48 47 45 44 42 40 39 36 36 37 38 34 32 31 29 31 33 32 32 34 36 38 40 41 44 46 47 47 48 48 48 47 46 45 44 43 41 40 39 36 35 33 31 31 30 27 26 26 24 23 22 22 23 23 24 26 25 23 20 15 12 14 14 11 9 10 12 15 14 7 4 5 3
68 66 65 64 63 62 60 56 54 54 55 56 55 53 51 50 47 46 44 42 41 38 36 39 40 36 34 34 33 33 34 32 31 35 37 37 38 38 39 41 43 46 48 49 48 48 48 48 47 46 45 44 43 40 37 35 34 34 31 29 28 27 24 22 22 23 24 24 26 28 27 23 19 13 12 15 12 8 10 11 12 14 13 8 5 4 2
71 70 68 66 65 65 63 59 57 55 56 57 57 56 55 53 50 48 46 44 43 41 38 41 43 38 36 37 35 34 35 33 32 35 37 36 36 37 38 39 40 42 45 46 47 48 50 50 49 49 49 48 46 42 39 38 38 37 33 31 30 26 23 23 23 22 22 23 25 27 25 21 19 16 16 17 15 12 12 12 14 17 16 12 8 5 3
74 73 71 69 67 67 65 63 60 58 57 57 59 59 58 56 52 51 49 47 47 44 41 43 45 40 37 38 37 35 36 35 34 37 38 36 37 39 40 41 41 42 42 42 44 47 49 50 50 50 50 50 47 43 42 42 40 38 36 34 31 27 25 26 25 23 22 21 22 23 22 21 20 18 19 20 17 13 11 13 16 18 17 14 12 10 8
77 75 74 72 70 69 68 65 62 61 59 58 59 60 60 59 56 55 53 51 50 48 45 46 47 42 38 39 38 37 37 37 37 39 38 36 38 40 40 40 41 41 40 41 42 44 45 47 48 49 51 50 46 43 44 43 39 37 35 33 31 30 30 28 27 27 26 23 22 20 19 18 19 20 22 22 17 12 12 13 15 16 15 13 12 11 9
79 78 77 75 72 71 70 68 65 64 62 61 60 59 60 61 60 58 57 55 53 51 49 50 49 44 41 41 40 38 39 39 39 40 39 39 41 41 40 39 39 40 41 43 43 42 42 44 44 46 48 49 45 42 41 40 38 36 34 33 32 33 32 29 29 31 31 26 22 21 19 17 19 23 25 22 16 14 15 15 15 17 17 15 15 14 12
82 81 80 78 76 74 72 71 69 67 65 63 61 60 61 62 61 60 59 57 56 54 52 52 51 46 43 43 42 42 41 41 41 42 41 42 43 42 38 38 40 41 43 44 44 43 44 44 42 43 45 47 46 43 41 40 40 37 35 34 32 30 29 31 31 31 30 27 24 24 22 21 23 25 25 21 18 18 20 19 18 20 21 20 20 19 16
84 83 83 82 79 76 75 73 71 70 68 66 63 62 62 62 61 61 60 59 58 57 54 54 52 48 46 46 46 44 42 41 43 43 43 44 44 42 39 39 42 44 44 45 45 45 45 44 42 43 44 44 46 47 43 40 39 36 35 36 35 31 30 31 30 29 30 30 28 25 23 26 30 29 24 23 23 23 24 22 21 22 23 22 23 23 18
86 85 86 85 82 79 78 76 73 72 70 68 66 65 64 64 62 61 60 60 60 58 56 55 53 50 49 49 48 45 43 44 45 45 45 45 44 43 41 42 44 43 43 44 44 44 45 44 44 45 45 43 46 49 46 40 38 37 37 37 36 36 35 32 29 30 31 30 27 26 27 31 33 29 25 27 29 27 25 25 25 25 24 23 25 24 18
88 88 88 87 85 82 80 78 76 74 72 71 70 68 67 66 64 62 61 61 60 59 58 56 54 53 53 51 49 47 47 47 47 46 46 46 45 44 43 44 44 43 43 43 42 42 45 46 45 46 45 43 46 49 48 44 41 41 42 40 36 35 38 37 35 34 32 29 27 29 32 34 33 30 30 31 31 29 28 28 28 28 25 24 27 23 13
89 89 89 88 86 85 83 80 78 76 74 73 73 72 69 68 65 63 63 62 61 60 59 57 57 57 55 52 50 50 49 48 48 48 47 47 47 46 45 47 47 46 44 44 42 43 46 48 48 48 45 44 46 48 48 49 47 45 45 42 37 37 41 43 40 39 38 36 35 36 37 38 36 36 35 34 31 29 30 31 31 29 25 24 27 24 15
86 88 89 88 87 86 85 82 79 77 76 74 74 74 72 69 66 65 65 63 63 62 60 59 59 58 54 52 52 52 50 50 50 49 48 48 48 48 48 50 50 48 46 45 45 45 47 49 51 49 45 45 48 48 47 50 51 48 45 41 39 41 44 44 43 43 43 44 44 44 43 42 40 39 38 36 33 31 32 33 33 32 29 27 27 25 20
82 84 86 87 87 87 86 84 81 78 77 76 75 74 73 71 68 67 66 65 64 63 61 60 59 57 55 55 55 53 51 51 51 50 49 49 49 50 51 51 51 50 49 48 48 48 49 50 51 49 46 48 50 48 47 49 51 49 46 44 44 45 45 44 44 45 45 45 47 47 44 43 42 41 38 36 34 33 34 35 35 35 34 31 30 30 28
79 80 83 85 86 86 86 84 82 80 79 78 76 74 73 72 71 70 68 66 65 63 62 60 59 57 57 56 54 53 52 52 52 51 50 50 50 51 52 52 52 51 51 51 50 50 50 51 51 49 49 51 50 47 47 49 50 48 46 45 45 45 44 44 44 44 44 45 46 46 45 45 44 41 38 37 38 37 36 36 36 35 34 33 33 35 35
76 78 80 82 84 85 84 83 82 80 79 78 76 75 74 74 74 72 70 68 66 65 63 61 60 58 57 55 54 54 54 53 52 52 51 51 52 52 53 53 54 53 53 52 52 52 51 52 52 52 51 52 51 48 46 48 48 47 44 43 43 44 44 45 45 44 44 45 45 46 47 48 47 42 38 38 40 40 37 36 35 34 32 33 36 39 40
75 77 78 80 81 83 83 83 82 80 79 78 77 75 74 74 74 73 71 69 68 66 64 63 61 59 57 56 56 56 55 54 54 53 53 53 53 54 55 55 55 55 54 54 54 54 53 53 54 54 52 52 51 48 46 48 48 45 42 43 44 43 43 45 45 45 45 46 46 46 48 50 50 46 40 37 39 40 39 38 37 34 32 34 37 39 41
74 76 77 79 80 81 82 82 81 80 78 77 76 75 74 74 73 73 72 71 70 68 66 65 62 60 58 58 58 58 57 56 55 55 54 55 55 55 57 57 56 56 56 56 56 55 54 53 54 53 51 51 51 48 46 48 47 44 43 44 45 43 42 44 45 45 46 46 46 47 48 50 51 48 41 37 38 40 41 40 38 35 33 35 37 38 39
73 75 77 79 79 80 81 81 80 79 77 76 75 75 75 74 73 73 73 72 70 69 68 66 63 61 61 61 60 59 58 57 57 56 55 55 56 57 58 58 57 57 58 58 57 55 53 53 53 52 50 51 51 47 46 48 47 45 45 46 45 43 44 45 46 46 46 45 45 46 48 49 50 49 44 39 39 42 42 41 38 35 34 35 37 37 37
71 74 76 78 78 79 79 79 79 77 76 75 75 75 74 73 72 72 71 71 71 70 69 67 65 64 63 62 60 59 58 58 57 57 56 56 58 58 58 58 59 59 60 58 56 54 53 52 52 51 50 50 51 49 48 47 47 47 48 47 45 45 46 46 46 47 46 45 44 44 46 47 47 48 45 42 41 44 45 43 39 37 36 37 38 38 36
70 73 75 76 77 78 77 77 76 75 75 75 74 74 73 72 71 71 70 70 70 70 69 68 67 66 64 62 60 60 59 59 58 58 58 59 59 59 59 60 60 60 59 56 54 53 52 52 51 51 50 51 51 51 48 46 46 48 49 48 47 46 45 45 46 47 46 45 43 43 43 44 45 47 46 43 43 46 46 43 39 38 38 38 36 35 33
66 70 72 73 74 75 74 75 75 74 74 74 73 73 72 72 71 70 70 69 69 69 69 69 68 67 65 64 63 62 61 60 60 60 59 60 60 60 60 61 61 58 55 53 51 50 50 50 50 51 52 51 49 48 48 47 48 49 49 49 47 45 44 44 45 44 44 43 42 41 41 42 44 46 45 44 45 47 46 42 39 39 40 39 35 30 26
60 65 68 70 70 71 72 73 74 73 73 73 73 73 73 72 71 70 70 69 69 69 69 69 69 69 67 66 65 64 62 62 62 61 61 61 61 61 62 61 58 53 50 48 47 47 48 47 47 51 53 50 46 47 49 49 48 48 49 48 46 44 43 43 43 42 42 41 39 38 38 40 43 44 43 44 45 44 42 40 40 41 42 40 35 30 25
55 60 64 66 67 68 69 71 72 72 72 72 72 72 71 71 71 70 70 69 69 69 69 70 70 69 68 67 66 65 64 63 62 61 62 62 61 61 60 56 51 47 46 44 42 43 44 44 46 49 49 44 42 45 48 47 46 47 47 46 44 43 42 41 41 40 38 36 35 36 38 40 41 41 40 41 42 41 41 42 44 45 45 41 35 32 32
52 55 59 62 64 66 67 68 69 70 70 70 70 70 70 70 70 70 70 70 69 69 70 70 69 68 67 66 66 64 63 62 62 61 62 61 60 58 54 49 45 44 43 41 39 38 38 39 42 44 42 39 40 45 46 44 44 44 44 43 41 40 39 39 39 36 34 33 34 35 35 34 34 36 37 39 41 42 44 45 44 43 44 43 37 35 39
51 54 58 60 62 64 65 66 66 67 67 68 68 68 68 68 69 69 70 70 69 69 69 68 68 67 66 65 63 62 62 62 61 61 60 58 55 52 48 44 43 44 43 40 39 41 41 40 40 39 38 40 43 44 42 39 38 39 41 40 37 36 37 38 35 32 32 33 33 34 34 33 34 37 39 41 42 43 43 44 42 40 41 43 41 41 44
50 53 56 58 61 62 63 63 63 64 64 65 65 66 67 68 69 69 68 67 66 67 67 66 66 65 63 62 62 62 62 62 61 59 55 51 47 45 43 42 43 44 42 40 41 43 42 39 38 38 39 42 42 41 40 36 33 34 36 36 35 35 36 35 33 33 35 35 36 39 41 41 42 43 43 43 43 42 42 42 40 38 39 42 44 45 48
48 50 52 55 57 58 59 60 61 61 62 63 64 65 66 67 67 66 65 65 65 65 65 64 63 62 62 62 62 61 60 58 55 51 48 45 43 42 42 42 43 42 41 41 43 43 40 38 38 39 40 42 41 40 40 38 35 32 32 32 33 34 35 35 37 39 42 44 45 46 47 46 46 46 45 43 42 41 40 40 38 36 37 39 40 43 47
45 46 49 51 53 55 56 57 59 60 61 62 63 64 64 65 64 63 63 63 63 62 61 61 60 60 60 59 59 57 54 50 46 44 43 42 42 42 42 42 42 41 41 42 43 42 40 39 40 40 41 41 40 38 38 39 37 34 32 32 34 36 39 42 46 49 51 52 52 51 49 49 48 47 45 43 41 39 38 37 37 35 35 34 33 36 41
45 46 47 50 52 53 54 56 57 59 60 61 61 61 61 60 59 59 58 58 57 57 57 57 57 56 55 53 51 48 45 42 41 41 41 41 42 42 42 42 42 42 42 43 42 41 41 41 41 41 39 36 33 34 37 38 38 36 36 37 39 43 48 53 56 56 56 56 55 52 50 48 46 43 40 38 35 33 32 34 34 34 32 31 30 32 35
46 46 46 48 49 51 53 55 56 57 58 59 59 58 57 56 55 55 54 54 54 54 54 53 51 49 47 45 43 42 41 40 40 40 40 40 41 41 41 41 41 41 42 41 39 38 40 42 42 41 38 34 32 33 37 39 41 42 42 44 48 53 58 61 61 59 57 56 54 51 47 44 40 37 35 33 30 28 27 28 30 32 32 31 31 31 32
45 45 46 47 49 50 51 52 54 55 56 56 56 54 54 54 54 53 52 51 51 49 48 46 44 42 41 41 41 41 41 41 40 40 40 41 41 41 40 40 39 39 38 35 33 33 37 39 38 35 34 35 36 39 41 45 48 49 50 54 59 64 65 63 59 55 55 54 52 48 45 41 37 35 33 31 29 28 27 27 28 31 31 30 30 28 25
44 45 45 47 47 48 48 49 51 52 52 50 50 51 52 52 51 49 48 47 46 43 42 41 40 39 40 40 41 41 41 40 40 41 40 41 40 40 38 37 35 34 34 33 31 31 33 34 33 32 34 37 41 44 48 52 56 58 61 65 69 69 68 64 57 52 52 52 51 47 43 40 38 37 34 31 29 30 30 28 27 28 27 26 25 23 20
42 43 43 44 44 44 45 45 46 46 46 47 49 51 50 47 45 44 43 42 41 40 39 40 40 40 41 41 41 41 40 40 40 40 39 38 37 35 34 32 32 31 33 33 33 33 33 32 32 34 38 42 45 49 55 60 65 67 70 73 73 72 70 66 60 53 51 51 50 47 43 40 39 38 35 31 30 31 30 27 24 22 20 19 19 18 17
39 40 40 40 40 41 41 42 42 43 44 45 45 44 42 40 40 40 40 40 39 39 40 40 40 40 40 40 39 39 38 37 37 36 35 35 33 32 31 32 32 32 33 33 34 37 38 35 34 37 43 46 50 55 63 69 73 75 77 78 77 75 73 69 62 54 51 52 52 47 42 39 37 36 33 30 29 29 27 24 21 18 15 13 12 12 13
37 38 38 38 39 40 40 40 41 41 40 39 39 39 39 41 41 41 39 39 39 39 39 38 38 38 38 37 36 36 36 35 35 34 33 32 32 32 33 34 34 34 35 35 35 36 38 37 36 41 47 52 56 63 71 77 79 80 81 81 80 77 75 72 63 52 51 55 53 43 35 33 34 32 28 25 23 20 17 17 19 20 18 16 15 14 14
Wind_Direction
263 262 262 261 257 256 255 254 251 249 247 244 241 239 239 241 242 239 232 229 234 231 218 213 211 206 201 199 197 196 196 198 200 203 203 203 205 207 209 211 212 214 215 218 221 224 229 235 238 241 243 242 239 236 236 236 236 237 239 239 240 240 241 241 240 243 246 244 241 236 231 228 225 226 225 223 225 228 228 228 227 227 225 221 220 220 218
259 259 260 259 255 253 254 255 253 250 247 244 240 236 235 235 237 237 232 226 228 227 217 210 208 206 204 201 197 196 198 199 203 206 208 208 210 212 214 214 215 216 217 219 224 228 233 239 243 245 248 248 244 239 237 236 236 236 235 237 238 237 238 239 238 240 243 244 242 236 232 230 226 225 223 221 223 229 233 234 232 232 232 228 225 223 220
256 256 257 257 255 252 253 256 256 254 249 245 240 235 232 231 232 234 231 226 224 224 218 208 206 207 205 200 197 199 200 202 207 212 213 213 214 215 217 217 218 219 221 223 227 232 237 241 245 247 250 252 248 242 239 239 238 235 232 235 238 235 234 236 236 237 240 243 245 244 240 235 229 225 223 221 221 224 231 234 232 233 234 233 230 226 222
253 253 254 255 254 251 253 256 257 255 253 248 242 236 232 229 228 230 230 226 222 222 219 212 208 208 206 203 202 202 202 206 211 216 218 218 218 220 222 222 222 224 226 228 231 236 240 243 246 249 251 253 252 247 243 242 242 240 238 241 244 241 237 235 235 238 241 243 244 243 243 239 233 229 225 222 222 222 226 230 231 233 233 231 230 226 222
251 251 251 253 253 252 252 254 256 255 253 250 245 238 233 229 226 226 227 227 223 222 221 217 213 210 208 207 207 207 208 210 214 217 221 224 226 228 228 228 227 230 231 233 236 240 243 246 249 251 252 254 254 252 248 247 248 250 251 252 252 248 244 239 236 237 240 242 239 239 243 241 233 230 227 225 224 223 225 227 229 232 233 231 229 225 223
251 250 250 251 252 252 251 252 253 254 252 248 245 241 235 230 226 225 225 226 224 222 221 221 219 216 213 213 213 213 214 216 218 220 224 227 230 232 233 233 234 236 237 238 240 241 245 249 252 254 255 256 255 254 253 254 254 254 254 258 259 257 252 245 239 236 238 241 241 241 246 244 235 229 226 225 224 223 226 228 228 229 232 233 231 229 230
251 250 250 250 250 251 251 250 250 251 251 247 242 240 237 232 228 225 224 224 224 223 222 221 222 221 219 218 219 218 219 221 222 224 227 230 233 235 237 239 241 241 241 241 241 242 248 253 256 256 256 255 255 257 260 258 257 259 260 263 268 265 258 251 244 240 238 239 240 242 245 246 241 233 227 226 226 224 225 229 229 226 228 230 231 231 232
249 250 250 250 249 249 249 249 249 248 248 247 243 239 236 233 231 228 225 223 224 224 224 222 222 224 223 224 225 224 224 225 226 227 230 232 234 237 240 242 244 245 244 241 239 241 245 252 259 260 256 256 255 258 265 264 263 266 265 265 268 267 264 259 250 246 244 241 240 240 242 246 247 241 233 230 228 225 224 229 231 229 228 228 229 230 230
248 248 249 249 249 248 247 247 248 247 246 246 244 241 236 233 232 231 227 225 224 224 225 224 224 225 226 228 230 229 229 230 230 231 233 234 235 238 240 242 245 246 245 241 238 242 241 245 262 264 257 255 255 254 262 267 268 270 266 261 265 268 270 269 261 253 252 249 247 245 243 244 246 244 239 235 231 227 226 229 232 232 230 229 229 231 230
247 247 247 248 249 248 247 246 246 246 246 245 244 243 239 235 232 231 229 227 226 225 226 227 227 227 227 229 231 233 234 235 236 236 237 237 237 239 241 243 244 245 244 243 242 245 240 235 247 253 248 245 244 243 255 261 260 265 264 260 264 269 270 273 268 253 247 247 254 255 249 244 242 240 238 237 234 230 229 231 233 234 233 232 232 233 232
246 246 246 247 248 248 247 246 244 244 245 245 244 243 241 238 236 233 231 230 228 226 226 227 228 229 230 230 232 233 235 237 238 240 240 241 242 244 244 245 245 245 246 246 244 244 241 232 234 240 240 239 234 231 244 252 248 250 255 257 262 269 271 271 263 250 247 249 255 257 253 249 246 242 238 236 235 233 231 231 234 235 236 237 239 239 235
245 246 246 246 247 247 247 246 244 243 244 245 244 242 241 240 238 236 234 232 231 228 227 228 228 229 231 232 233 235 236 236 238 241 243 243 244 245 244 244 245 245 247 247 245 245 243 240 239 242 243 242 237 232 234 242 245 246 247 250 254 259 266 269 262 251 250 253 254 255 254 253 254 253 249 245 242 238 234 233 233 235 237 238 240 240 235
245 245 245 245 246 246 246 245 244 243 243 243 243 241 240 239 239 238 237 235 232 230 230 230 230 230 232 233 234 236 237 237 239 241 242 242 243 244 245 246 247 247 247 246 246 245 245 245 247 247 245 243 240 237 235 237 244 246 246 248 251 249 249 256 256 247 242 245 246 248 252 254 254 254 254 253 247 241 239 241 240 239 242 242 242 243 239
244 245 245 245 245 245 244 244 243 243 242 242 242 240 239 239 239 238 238 238 235 232 232 233 233 233 233 235 236 237 238 238 238 240 241 241 242 244 245 246 247 246 245 244 246 247 247 247 247 246 245 244 243 241 239 241 245 247 247 249 252 251 248 250 251 246 241 238 236 239 247 251 253 252 249 250 251 246 245 247 245 242 245 248 249 248 244
244 244 244 244 244 244 243 242 242 241 241 241 240 239 239 239 239 239 239 240 238 236 234 234 235 236 236 236 236 237 238 238 239 240 240 240 242 243 244 245 245 246 246 246 247 248 248 247 247 245 244 243 241 239 240 243 246 247 248 248 250 253 253 251 250 247 242 236 233 236 238 240 245 248 243 244 249 243 239 240 239 240 244 250 255 253 250
243 243 243 243 243 243 242 241 240 239 240 240 239 238 238 238 239 239 240 240 240 239 239 238 238 238 237 236 237 239 241 241 242 243 243 242 242 242 243 244 244 245 246 247 248 247 247 247 247 246 244 242 241 240 241 242 243 246 248 249 250 253 255 255 253 249 242 236 233 234 234 235 241 241 235 239 245 240 238 235 232 235 240 245 256 262 261
242 242 242 242 242 242 242 241 239 238 238 239 238 237 237 237 238 239 240 240 241 240 240 241 241 240 240 241 243 246 247 246 247 247 246 245 244 243 243 243 244 244 245 247 248 248 247 247 247 247 246 243 242 241 240 239 241 247 249 250 252 254 256 258 255 249 245 238 234 234 233 234 238 235 227 238 246 248 250 245 237 240 243 243 248 260 266
241 241 241 241 241 241 241 240 239 238 237 237 237 236 236 237 237 238 239 240 241 240 241 244 245 244 244 245 244 246 248 248 248 247 245 244 244 243 244 244 244 244 244 246 247 248 248 248 247 247 247 245 244 242 240 241 245 247 247 249 255 258 261 261 254 246 244 241 235 234 233 233 236 234 233 247 258 266 262 243 237 244 245 240 238 248 270
239 239 240 240 240 240 240 240 239 238 236 236 235 235 236 236 236 237 238 239 241 240 240 244 245 244 245 247 246 247 251 253 252 251 250 249 249 249 249 249 247 246 246 246 247 248 249 249 248 247 247 246 244 243 242 243 245 245 245 250 257 260 259 259 254 249 247 243 237 237 237 238 240 238 244 255 259 257 241 224 221 229 225 213 221 253 310
238 238 238 239 239 239 239 238 238 237 236 235 235 235 236 236 235 237 238 239 241 241 240 243 246 244 245 247 248 249 254 256 257 255 254 253 251 249 248 248 247 246 247 247 247 247 248 249 249 248 247 246 245 245 245 245 245 247 249 252 255 257 253 249 249 252 254 248 243 241 240 240 239 235 239 245 238 226 224 214 209 211 205 194 193 195 194
236 236 237 237 238 238 238 237 237 237 236 236 235 234 235 236 236 237 238 239 241 242 241 244 246 245 245 248 250 251 254 257 257 256 255 254 251 248 247 246 246 247 248 248 248 247 248 248 248 248 249 248 247 246 247 246 246 248 250 249 250 252 251 248 249 251 251 248 246 245 240 237 236 232 231 235 231 221 212 206 206 202 191 184 184 177 186
235 235 236 236 236 237 238 237 236 236 236 236 235 235 235 236 236 237 238 239 241 243 242 244 247 247 247 249 250 252 254 257 257 258 259 258 254 251 250 250 250 251 251 251 250 250 250 250 249 249 249 249 248 247 248 249 247 246 247 246 245 244 244 245 246 244 240 238 241 244 241 237 240 238 233 228 224 219 212 204 199 192 183 183 187 179 180
233 234 235 235 235 236 237 237 236 235 235 235 236 235 236 236 236 237 238 240 242 243 243 245 248 249 249 250 252 252 253 255 256 257 257 254 252 251 251 251 251 251 251 251 251 251 252 251 251 250 250 249 248 247 247 247 244 241 241 243 243 241 239 238 239 239 237 236 236 234 229 227 231 236 234 226 212 210 213 201 185 180 180 181 191 196 192
231 232 233 234 234 234 235 236 235 235 235 235 235 235 236 236 236 237 239 240 241 243 244 246 249 249 250 251 251 251 251 254 256 257 257 254 254 254 254 252 251 250 250 251 251 252 251 251 250 250 249 246 244 240 240 242 241 240 242 241 238 237 235 231 234 238 237 235 232 226 222 226 230 230 227 220 208 205 206 198 184 180 180 182 197 209 204
229 230 232 233 233 233 234 234 234 234 234 234 234 235 236 237 237 237 238 240 241 242 244 246 248 249 250 250 251 253 255 257 257 258 257 256 256 256 253 250 250 249 250 251 252 252 252 252 251 250 249 246 242 237 236 240 240 238 239 238 233 230 229 227 230 236 235 233 231 223 221 231 236 230 221 215 210 206 202 197 190 187 186 192 203 205 200
227 228 230 232 232 233 233 233 233 233 234 234 234 234 235 236 237 237 238 240 241 243 244 246 248 250 250 251 253 255 255 255 255 256 256 255 254 253 250 248 250 251 252 253 254 255 255 255 253 252 251 248 243 236 232 233 234 231 232 232 228 225 226 225 227 231 230 230 230 225 226 233 235 231 225 218 211 204 200 197 197 197 196 201 207 202 194
227 227 229 230 231 232 233 232 232 232 233 233 234 235 235 235 236 237 238 240 241 243 244 246 248 248 249 251 253 254 254 255 256 256 255 254 252 251 249 249 250 252 254 256 257 257 257 255 253 253 251 249 246 239 231 228 230 230 230 228 223 223 228 230 230 228 225 225 226 227 230 231 226 223 227 222 210 202 201 200 200 202 200 201 207 208 195
226 227 228 229 230 231 233 232 231 231 232 233 233 234 235 236 236 237 238 239 241 242 244 245 246 248 250 253 254 255 255 256 256 255 253 252 251 249 248 248 250 252 255 258 260 260 259 256 253 252 252 250 248 242 233 229 228 229 230 229 224 225 231 231 229 227 226 227 230 232 235 234 225 219 223 222 211 204 206 204 199 198 198 200 205 205 195
225 226 227 228 228 230 232 232 231 231 232 233 233 234 235 236 236 237 238 239 240 242 243 244 246 249 251 251 251 252 252 253 253 253 252 251 250 248 247 249 252 255 258 260 262 262 261 258 254 253 252 250 247 242 236 231 229 230 232 230 224 225 229 228 227 229 229 228 231 233 235 235 230 224 223 222 214 206 205 205 201 196 195 197 199 194 184
224 225 226 227 228 229 230 231 231 231 232 233 233 234 234 235 237 238 238 239 240 241 243 244 246 247 248 248 249 251 252 252 252 252 251 251 250 249 249 250 254 257 259 261 263 264 262 259 255 253 252 251 249 244 238 233 229 228 229 229 226 227 230 229 228 230 230 227 228 230 231 231 230 227 224 220 214 208 206 206 205 202 198 196 196 191 182
223 224 225 226 227 228 229 230 230 231 231 232 233 234 234 235 236 237 238 239 240 241 242 243 245 246 247 248 250 251 250 250 251 251 251 251 250 250 250 252 255 257 259 262 264 265 263 259 256 253 251 250 249 245 239 235 232 229 229 230 229 228 229 228 227 229 230 228 227 227 227 229 230 228 223 218 216 215 210 205 206 207 204 199 198 195 188
222 223 224 225 226 227 228 228 229 230 230 231 232 233 234 234 235 236 238 239 241 242 243 244 245 246 247 248 248 249 249 249 250 251 251 251 251 251 252 254 257 259 261 263 266 266 262 257 253 250 249 248 247 243 238 236 234 231 229 230 230 228 228 227 227 229 230 228 226 225 226 229 231 229 224 219 217 216 211 205 206 209 204 198 198 197 192
220 222 223 224 225 226 227 227 228 228 229 230 232 233 234 235 235 237 238 239 241 242 243 244 245 246 247 248 248 248 249 249 250 251 252 252 253 253 254 256 259 261 262 265 266 264 260 254 250 248 248 247 245 241 236 235 234 231 229 230 230 228 228 229 229 230 229 227 225 225 225 228 230 229 226 219 214 211 208 205 205 204 198 192 195 197 193
219 220 222 223 224 225 226 226 227 227 228 229 231 232 234 235 235 236 237 238 240 242 243 244 245 246 247 248 248 248 249 250 250 251 252 253 254 255 256 258 260 262 264 265 265 263 258 253 249 248 247 245 243 239 236 235 235 232 230 231 230 229 229 230 231 231 231 228 226 225 225 226 227 228 227 221 212 207 205 204 202 200 195 192 194 196 193
216 219 220 222 223 224 225 225 226 226 227 228 230 231 233 234 235 236 237 238 239 241 242 244 245 246 247 248 248 249 250 251 252 253 254 255 255 256 258 260 262 264 266 267 265 261 255 250 247 245 242 239 239 238 236 235 234 233 232 233 232 231 231 232 232 233 233 232 229 227 225 225 225 226 227 221 211 205 203 201 198 196 194 194 194 193 190
214 217 219 221 222 223 224 224 225 226 226 228 229 231 233 234 235 236 237 238 239 241 242 244 245 246 247 248 250 251 252 253 254 254 255 256 257 258 260 262 263 265 267 266 263 256 251 246 243 240 237 235 235 236 235 235 234 234 234 234 234 233 233 233 234 234 234 234 233 229 226 224 223 223 223 218 209 204 203 200 196 194 194 194 192 189 187
214 216 218 220 221 222 223 224 225 225 226 227 228 230 232 234 235 236 237 238 239 241 242 243 244 246 248 249 251 251 252 253 254 255 256 257 258 260 262 263 265 267 267 263 257 250 245 240 237 234 233 233 233 235 236 236 235 234 234 234 234 234 235 236 236 236 236 236 235 231 227 223 219 219 219 214 205 201 201 199 194 191 190 188 185 184 183
215 216 218 220 221 222 223 223 224 225 225 226 228 229 231 233 234 235 236 238 239 240 241 243 244 246 248 249 251 252 254 255 256 256 257 258 260 261 263 265 267 265 260 254 249 245 240 236 232 231 232 232 232 234 235 235 234 234 234 234 235 235 236 238 239 238 237 236 233 229 224 220 216 215 214 208 201 199 200 197 191 187 186 181 176 176 175
215 216 217 219 220 222 222 223 224 224 225 226 227 228 229 231 233 235 236 237 238 240 241 242 244 246 247 249 252 253 254 255 256 256 257 259 261 263 264 265 263 258 251 246 242 240 237 233 229 230 231 230 230 232 234 233 234 234 234 235 235 236 237 239 239 237 235 233 229 224 219 215 213 211 208 202 199 198 196 190 184 183 180 173 169 173 173
215 215 216 218 219 220 222 222 223 224 225 225 226 228 229 231 233 234 236 237 238 240 241 242 244 246 248 250 252 253 253 254 255 256 258 260 262 264 263 260 255 247 241 238 236 236 235 231 229 230 231 228 227 230 233 233 233 234 235 235 235 235 236 237 236 234 231 226 220 215 212 209 207 204 200 196 194 191 187 183 181 180 177 172 172 179 180
214 214 215 216 218 219 221 222 223 223 224 225 227 228 229 231 232 234 236 237 238 239 241 242 244 246 248 249 250 252 253 254 255 257 259 260 261 259 255 248 241 236 233 232 231 233 233 230 230 232 231 228 228 230 232 233 233 234 234 234 234 233 234 234 231 226 221 214 208 205 202 199 195 191 187 185 185 183 181 180 179 178 176 174 176 186 188
213 212 213 215 216 217 219 221 222 223 224 225 226 228 229 230 232 233 235 236 237 239 241 242 244 245 247 249 250 252 253 254 255 257 259 258 256 251 244 237 231 230 229 228 229 230 230 229 230 232 232 230 230 230 230 232 233 234 233 232 230 229 229 226 219 211 205 200 195 188 181 178 177 177 175 176 176 176 175 176 177 179 181 178 176 184 189
212 212 213 214 215 217 218 219 221 222 223 224 226 227 228 229 231 232 234 235 237 239 240 242 243 245 247 248 249 250 252 254 255 256 254 249 242 237 233 229 228 228 228 227 227 229 230 229 228 230 231 232 233 232 231 229 229 229 228 225 222 220 218 211 200 191 187 181 173 167 164 164 166 168 168 169 169 168 170 173 175 178 182 181 179 183 188
211 212 213 214 216 217 218 219 219 220 222 223 225 226 228 229 231 232 233 234 235 237 239 241 242 244 246 247 248 250 252 253 252 249 242 235 230 227 226 227 227 227 228 228 228 230 230 228 228 230 231 232 233 233 230 226 224 223 220 213 208 206 201 191 181 174 168 162 159 160 161 161 163 165 165 166 166 166 167 169 170 173 177 180 183 186 187
211 212 213 214 216 216 217 217 218 219 220 221 223 225 227 229 230 231 232 233 235 237 239 241 242 244 246 247 249 249 248 245 240 234 228 225 225 226 227 228 229 229 230 231 231 231 230 229 229 230 230 231 232 231 227 223 221 215 205 196 192 190 183 174 167 162 159 158 160 161 161 161 163 164 165 166 167 167 167 168 169 170 173 176 182 188 187
210 212 213 214 215 216 216 216 217 218 219 220 222 224 226 227 229 230 231 233 234 236 238 240 242 244 245 245 244 241 236 231 226 224 222 223 225 228 230 231 232 232 233 234 234 233 232 231 229 227 225 224 223 220 217 214 207 196 185 182 181 177 169 164 160 159 159 159 158 157 157 159 160 162 164 167 168 168 169 170 170 169 168 169 174 183 183
211 212 212 213 215 216 216 216 217 218 219 220 222 223 224 226 227 228 230 231 233 234 236 237 238 238 237 234 230 226 223 221 221 222 223 225 227 230 232 234 234 235 235 235 234 232 231 229 227 225 222 217 210 206 203 197 188 178 174 173 172 167 162 160 160 159 158 156 153 153 154 155 155 158 162 165 165 166 169 171 169 167 167 166 166 170 172
211 212 212 213 214 215 215 215 217 218 219 220 221 223 224 225 226 227 228 230 231 232 232 232 230 228 225 222 219 219 220 221 222 223 225 228 231 233 235 236 236 234 230 226 222 222 223 222 220 217 213 205 199 195 190 182 176 172 169 166 164 162 161 159 157 156 155 155 153 152 152 152 153 155 157 160 162 164 164 166 168 168 169 169 168 168 170
210 210 211 212 213 213 213 214 216 217 218 219 220 222 223 224 224 225 225 225 225 223 222 221 220 219 218 219 220 220 222 224 226 228 231 233 234 233 231 229 226 222 218 212 207 208 214 215 211 204 197 193 191 188 182 175 170 167 165 164 163 162 160 157 154 156 160 159 155 153 154 156 157 156 154 153 156 158 158 161 167 169 171 173 176 178 180
205 206 207 208 209 210 211 212 212 213 214 214 216 217 218 218 218 219 218 216 215 215 214 214 215 216 217 219 221 224 226 228 230 230 229 227 225 222 218 216 215 214 213 210 207 207 210 209 202 194 191 189 188 184 178 172 167 164 164 164 163 161 159 157 156 158 163 163 159 158 161 165 165 164 162 159 159 159 158 160 166 170 174 179 181 183 188
199 200 201 201 202 202 203 204 205 206 207 208 210 211 210 209 209 210 209 209 210 211 212 213 216 218 221 224 226 227 226 224 222 218 215 213 211 210 210 212 213 213 214 214 213 213 214 210 198 188 187 188 186 181 175 170 166 165 166 165 163 162 161 160 158 157 162 164 162 160 162 164 164 164 165 166 167 165 160 157 163 175 185 188 186 186 192
192 193 193 193 194 195 196 197 198 199 200 200 202 203 203 203 203 204 205 207 209 211 213 216 219 222 224 224 222 219 214 210 207 205 205 205 207 208 210 213 215 216 217 218 218 217 215 210 198 189 187 187 184 178 172 169 167 167 167 166 165 165 165 163 159 158 163 166 162 156 159 166 167 163 162 167 173 172 165 162 170 183 197 202 199 195 192
Height
10797 10798 10799 10800 10800 10801 10801 10801 10802 10803 10804 10806 10808 10810 10812 10814 10816 10818 10820 10821 10821 10822 10823 10823 10825 10826 10828 10830 10832 10835 10838 10840 10842 10844 10847 10850 10853 10855 10857 10859 10861 10863 10865 10867 10869 10871 10872 10874 10875 10877 10878 10879 10879 10880 10881 10882 10883 10883 10883 10884 10884 10885 10885 10886 10887 10888 10889 10889 10890 10891 10892 10892 10894 10896 10898 10900 10901 10902 10902 10903 10904 10905 10906 10908 10909 10911 10914
10793 10794 10795 10797 10798 10798 10798 10799 10799 10800 10801 10803 10805 10807 10809 10811 10813 10815 10817 10819 10820 10821 10821 10823 10824 10826 10827 10829 10832 10835 10837 10839 10841 10843 10846 10849 10851 10853 10855 10858 10860 10862 10864 10866 10867 10869 10870 10872 10873 10875 10876 10876 10877 10879 10880 10880 10881 10881 10882 10882 10882 10883 10883 10884 10885 10886 10886 10887 10888 10889 10889 10890 10892 10893 10895 10897 10898 10900 10900 10901 10903 10904 10904 10906 10907 10910 10913
10790 10791 10792 10793 10795 10796 10796 10797 10797 10798 10799 10800 10801 10803 10805 10808 10810 10812 10814 10816 10818 10819 10820 10822 10823 10824 10826 10829 10831 10833 10835 10838 10840 10842 10844 10846 10849 10851 10853 10856 10858 10860 10862 10864 10865 10867 10868 10870 10871 10873 10873 10874 10875 10876 10878 10878 10879 10879 10880 10880 10881 10881 10882 10882 10883 10883 10884 10885 10886 10887 10887 10888 10889 10891 10893 10894 10896 10897 10898 10899 10901 10901 10901 10904 10905 10908 10912
10786 10787 10789 10790 10792 10793 10794 10794 10795 10796 10796 10797 10798 10800 10802 10804 10807 10809 10811 10814 10815 10817 10819 10820 10822 10823 10825 10827 10829 10831 10834 10836 10838 10840 10842 10845 10847 10849 10851 10854 10856 10858 10860 10862 10863 10865 10866 10868 10869 10870 10871 10872 10873 10874 10875 10876 10877 10877 10878 10879 10879 10879 10880 10881 10881 10882 10882 10883 10884 10885 10885 10886 10887 10889 10891 10892 10893 10894 10895 10897 10898 10898 10899 10901 10902 10906 10910
10782 10784 10785 10786 10788 10790 10791 10792 10793 10793 10794 10795 10796 10797 10799 10801 10803 10805 10808 10810 10813 10815 10817 10818 10820 10822 10824 10826 10828 10830 10832 10834 10836 10838 10840 10842 10845 10847 10848 10851 10854 10856 10857 10860 10861 10863 10864 10866 10867 10868 10869 10870 10871 10872 10873 10874 10875 10876 10876 10877 10877 10878 10879 10879 10880 10880 10880 10881 10882 10883 10883 10884 10886 10887 10888 10890 10891 10892 10893 10893 10894 10896 10897 10898 10900 10904 10906
10778 10780 10781 10782 10785 10786 10788 10789 10790 10791 10792 10793 10794 10795 10796 10798 10800 10802 10805 10807 10810 10812 10814 10816 10818 10820 10822 10824 10826 10828 10830 10832 10834 10836 10838 10840 10842 10843 10845 10848 10851 10853 10855 10857 10858 10860 10862 10863 10865 10866 10867 10868 10869 10870 10871 10872 10873 10874 10875 10875 10876 10876 10877 10878 10878 10879 10879 10879 10880 10881 10881 10882 10883 10884 10885 10887 10888 10889 10890 10890 10891 10893 10895 10896 10899 10902 10903
10773 10775 10777 10778 10780 10782 10784 10786 10787 10788 10790 10790 10792 10792 10794 10795 10796 10799 10801 10804 10806 10809 10811 10814 10815 10817 10820 10821 10822 10825 10827 10829 10831 10834 10836 10837 10838 10841 10843 10846 10848 10850 10852 10854 10856 10858 10860 10861 10863 10864 10865 10866 10867 10868 10869 10870 10871 10872 10873 10874 10874 10875 10876 10876 10877 10877 10878 10878 10879 10879 10880 10880 10881 10882 10883 10884 10886 10887 10887 10888 10889 10890 10892 10894 10897 10899 10899
10768 10770 10772 10774 10776 10778 10780 10782 10784 10785 10787 10788 10789 10790 10791 10792 10794 10795 10798 10800 10803 10805 10808 10810 10812 10814 10816 10817 10819 10822 10824 10826 10828 10831 10832 10834 10836 10839 10841 10843 10845 10847 10849 10851 10853 10856 10857 10859 10861 10862 10863 10864 10865 10866 10867 10868 10870 10871 10872 10873 10873 10873 10874 10875 10875 10876 10876 10877 10877 10878 10879 10879 10879 10880 10882 10882 10883 10884 10885 10886 10886 10888 10889 10891 10894 10895 10895
10762 10764 10766 10769 10771 10773 10776 10778 10780 10782 10783 10785 10786 10787 10789 10790 10791 10792 10794 10797 10799 10801 10804 10806 10808 10811 10813 10814 10816 10819 10820 10822 10825 10827 10829 10831 10834 10836 10838 10840 10842 10844 10845 10847 10852 10853 10854 10856 10859 10861 10863 10863 10864 10864 10865 10867 10868 10869 10870 10871 10872 10872 10872 10873 10874 10875 10874 10875 10876 10876 10877 10878 10878 10879 10879 10880 10881 10882 10883 10884 10885 10886 10887 10888 10890 10890 10892
10756 10759 10761 10763 10765 10768 10771 10773 10775 10777 10779 10781 10783 10784 10786 10787 10789 10790 10792 10793 10795 10797 10800 10802 10805 10807 10809 10810 10813 10815 10816 10819 10822 10823 10824 10828 10831 10833 10836 10837 10838 10839 10841 10846 10850 10850 10850 10854 10858 10860 10861 10861 10861 10862 10863 10865 10867 10868 10869 10870 10870 10870 10871 10872 10873 10873 10872 10873 10874 10874 10875 10876 10876 10876 10877 10878 10879 10880 10882 10883 10884 10885 10885 10886 10886 10887 10891
10749 10752 10755 10757 10760 10762 10765 10768 10770 10773 10775 10777 10779 10780 10782 10784 10785 10787 10789 10790 10792 10794 10796 10798 10800 10803 10804 10807 10809 10810 10813 10816 10818 10818 10821 10825 10828 10831 10833 10833 10833 10835 10839 10844 10845 10844 10846 10851 10854 10856 10857 10857 10859 10859 10860 10862 10865 10866 10867 10868 10868 10869 10869 10870 10871 10872 10871 10872 10872 10873 10873 10873 10873 10874 10875 10876 10877 10878 10880 10881 10882 10883 10884 10884 10885 10888 10891
10743 10745 10748 10751 10754 10756 10759 10762 10765 10768 10770 10772 10774 10776 10778 10780 10781 10783 10785 10787 10789 10791 10793 10794 10796 10798 10800 10802 10804 10806 10809 10812 10813 10814 10818 10822 10824 10826 10827 10827 10829 10833 10837 10840 10839 10838 10842 10846 10848 10850 10852 10853 10855 10856 10857 10859 10861 10863 10864 10866 10867 10867 10868 10869 10870 10870 10870 10871 10871 10871 10871 10871 10872 10872 10873 10875 10875 10876 10878 10879 10880 10881 10881 10883 10885 10886 10888
10736 10738 10741 10744 10747 10750 10753 10756 10759 10762 10765 10767 10769 10771 10774 10776 10777 10779 10781 10782 10785 10787 10789 10791 10793 10795 10797 10799 10800 10802 10804 10808 10809 10810 10813 10817 10819 10820 10821 10823 10827 10831 10833 10833 10832 10833 10838 10841 10843 10846 10847 10848 10851 10853 10854 10856 10858 10860 10861 10863 10864 10865 10866 10867 10868 10868 10868 10868 10869 10869 10869 10870 10870 10871 10872 10873 10874 10875 10876 10877 10878 10879 10880 10881 10883 10884 10887
10729 10731 10734 10737 10740 10743 10746 10749 10753 10756 10759 10761 10764 10766 10769 10771 10773 10775 10776 10778 10781 10784 10786 10787 10789 10791 10793 10794 10796 10798 10800 10803 10805 10805 10808 10812 10813 10814 10816 10820 10823 10825 10826 10826 10826 10830 10835 10837 10839 10841 10843 10845 10847 10849 10850 10852 10855 10857 10858 10860 10861 10862 10864 10865 10865 10865 10865 10865 10866 10866 10867 10867 10868 10869 10871 10872 10872 10874 10875 10875 10876 10878 10878 10880 10882 10884 10887
10721 10724 10726 10729 10733 10736 10739 10743 10746 10750 10753 10755 10758 10761 10764 10766 10768 10770 10772 10774 10776 10779 10781 10784 10786 10787 10788 10790 10792 10794 10795 10798 10799 10800 10803 10807 10808 10810 10813 10815 10817 10819 10820 10821 10823 10827 10830 10832 10834 10837 10840 10841 10843 10844 10846 10849 10851 10853 10855 10856 10857 10859 10860 10862 10862 10862 10862 10863 10863 10863 10864 10865 10866 10867 10869 10870 10871 10872 10871 10872 10874 10876 10877 10880 10882 10884 10886
10713 10716 10718 10722 10725 10728 10732 10736 10739 10743 10746 10749 10752 10755 10758 10760 10763 10765 10767 10769 10771 10775 10778 10780 10780 10781 10783 10785 10788 10790 10791 10793 10794 10796 10799 10801 10803 10805 10808 10809 10811 10814 10815 10816 10819 10822 10825 10827 10830 10833 10835 10837 10839 10841 10844 10846 10848 10850 10851 10853 10854 10856 10857 10859 10859 10860 10860 10860 10861 10861 10861 10862 10863 10865 10868 10869 10869 10868 10869 10871 10874 10875 10876 10879 10882 10883 10884
10704 10708 10710 10714 10717 10720 10724 10728 10732 10736 10740 10742 10746 10749 10752 10754 10757 10760 10762 10764 10767 10770 10773 10773 10773 10776 10779 10782 10785 10787 10787 10788 10790 10792 10795 10796 10797 10800 10802 10803 10806 10809 10810 10811 10813 10817 10819 10822 10825 10827 10830 10832 10835 10838 10840 10842 10844 10846 10848 10850 10851 10852 10854 10855 10856 10857 10857 10857 10858 10858 10858 10859 10860 10863 10866 10867 10866 10867 10869 10872 10874 10875 10876 10879 10881 10882 10883
10695 10699 10702 10706 10709 10712 10716 10721 10725 10729 10733 10736 10739 10743 10745 10748 10751 10753 10756 10759 10762 10765 10767 10767 10768 10772 10776 10778 10780 10781 10781 10783 10786 10787 10788 10789 10791 10794 10796 10798 10801 10803 10804 10806 10808 10811 10814 10817 10819 10821 10824 10827 10830 10833 10836 10839 10841 10842 10844 10846 10848 10849 10851 10852 10853 10853 10854 10854 10855 10855 10855 10857 10859 10862 10865 10865 10865 10867 10869 10871 10873 10874 10877 10879 10880 10882 10883
10685 10689 10693 10697 10701 10704 10708 10713 10717 10722 10725 10729 10732 10736 10738 10741 10745 10748 10751 10754 10756 10760 10763 10761 10762 10767 10771 10771 10774 10776 10776 10778 10781 10782 10782 10785 10788 10791 10792 10794 10796 10797 10798 10801 10803 10806 10808 10810 10813 10815 10817 10820 10823 10828 10832 10835 10837 10838 10841 10843 10844 10845 10847 10848 10849 10850 10850 10851 10852 10851 10852 10855 10858 10861 10863 10863 10864 10866 10866 10867 10869 10871 10874 10877 10879 10881 10882
10675 10679 10684 10688 10692 10696 10700 10705 10709 10714 10718 10721 10725 10729 10731 10734 10739 10742 10745 10748 10750 10753 10757 10756 10756 10762 10766 10766 10768 10771 10771 10774 10777 10777 10778 10781 10784 10786 10787 10788 10790 10791 10792 10795 10798 10800 10801 10803 10806 10809 10811 10813 10818 10823 10827 10830 10831 10834 10837 10839 10841 10842 10844 10844 10845 10846 10847 10847 10848 10848 10851 10854 10857 10859 10860 10859 10860 10862 10862 10863 10865 10867 10869 10871 10874 10876 10878
10664 10669 10674 10679 10683 10687 10691 10696 10702 10706 10710 10713 10717 10721 10723 10728 10733 10736 10738 10742 10743 10747 10752 10750 10749 10756 10760 10760 10763 10766 10766 10769 10771 10770 10772 10776 10778 10780 10781 10782 10783 10785 10788 10791 10792 10793 10795 10797 10800 10803 10805 10807 10813 10819 10821 10823 10826 10829 10831 10834 10837 10839 10839 10840 10842 10843 10843 10844 10844 10846 10849 10852 10854 10855 10856 10855 10856 10859 10860 10861 10863 10864 10865 10868 10870 10872 10874
10653 10659 10664 10669 10674 10678 10682 10688 10694 10698 10702 10705 10709 10714 10717 10721 10725 10728 10731 10734 10737 10741 10745 10743 10743 10751 10756 10756 10758 10761 10761 10763 10764 10765 10768 10772 10773 10773 10775 10778 10780 10782 10784 10785 10786 10787 10790 10792 10795 10798 10799 10802 10808 10812 10814 10817 10821 10824 10826 10829 10832 10834 10835 10836 10837 10838 10838 10839 10841 10844 10847 10849 10850 10852 10852 10852 10854 10857 10859 10860 10862 10864 10866 10867 10868 10868 10868
10642 10648 10652 10658 10664 10669 10673 10679 10685 10690 10693 10697 10702 10707 10709 10712 10717 10721 10724 10727 10730 10735 10737 10737 10739 10746 10750 10750 10753 10755 10756 10758 10759 10760 10763 10765 10765 10767 10771 10774 10775 10777 10778 10778 10779 10783 10785 10786 10789 10792 10794 10797 10802 10806 10809 10812 10815 10817 10821 10824 10826 10828 10831 10832 10832 10832 10833 10835 10838 10841 10843 10846 10848 10847 10847 10849 10853 10855 10856 10859 10861 10862 10864 10865 10866 10864 10862
10630 10636 10641 10646 10654 10659 10664 10670 10676 10681 10684 10689 10695 10699 10701 10704 10709 10714 10717 10721 10724 10727 10730 10731 10734 10740 10743 10744 10746 10748 10750 10752 10753 10754 10756 10758 10758 10762 10767 10769 10769 10770 10771 10771 10773 10776 10778 10779 10783 10786 10787 10790 10795 10798 10801 10804 10807 10812 10815 10817 10820 10823 10826 10827 10828 10829 10830 10832 10833 10836 10840 10843 10843 10841 10843 10847 10850 10851 10853 10855 10858 10859 10860 10861 10863 10863 10861
10619 10625 10629 10635 10643 10649 10654 10660 10667 10672 10676 10681 10687 10690 10692 10696 10701 10706 10710 10714 10716 10720 10723 10725 10728 10733 10736 10736 10738 10742 10745 10747 10748 10749 10751 10752 10753 10758 10762 10762 10761 10762 10764 10765 10767 10770 10771 10774 10778 10780 10781 10785 10789 10790 10793 10798 10801 10805 10808 10810 10814 10818 10820 10822 10824 10826 10826 10827 10829 10834 10838 10838 10835 10835 10840 10845 10846 10848 10851 10853 10855 10856 10856 10858 10861 10861 10860
10608 10614 10618 10624 10632 10639 10644 10651 10658 10663 10667 10673 10678 10681 10684 10688 10693 10698 10703 10706 10709 10713 10716 10719 10723 10727 10728 10729 10732 10737 10739 10740 10741 10743 10745 10746 10748 10751 10754 10754 10754 10756 10759 10760 10762 10765 10767 10769 10772 10773 10775 10780 10781 10782 10788 10793 10795 10798 10800 10803 10808 10812 10814 10817 10821 10822 10822 10824 10827 10831 10832 10830 10829 10833 10838 10840 10842 10845 10849 10852 10853 10854 10855 10857 10860 10860 10858
10596 10602 10607 10614 10622 10628 10634 10641 10648 10654 10660 10665 10669 10672 10676 10680 10685 10691 10695 10698 10702 10705 10709 10713 10717 10717 10718 10722 10727 10730 10731 10733 10735 10737 10739 10740 10742 10745 10747 10748 10748 10750 10752 10753 10757 10760 10760 10762 10764 10765 10769 10773 10774 10776 10782 10787 10789 10791 10793 10796 10802 10807 10809 10811 10814 10816 10818 10821 10823 10824 10823 10823 10826 10830 10832 10834 10838 10843 10847 10848 10850 10852 10854 10856 10858 10859 10859
10584 10590 10596 10604 10612 10619 10624 10631 10639 10645 10651 10656 10659 10663 10667 10672 10678 10684 10687 10691 10695 10698 10701 10706 10707 10707 10712 10718 10721 10722 10724 10727 10729 10730 10732 10734 10736 10738 10740 10741 10741 10743 10746 10748 10751 10753 10753 10754 10756 10758 10763 10767 10768 10769 10775 10780 10783 10785 10786 10791 10798 10802 10802 10804 10807 10809 10812 10815 10816 10816 10816 10817 10821 10825 10827 10829 10835 10840 10843 10845 10847 10849 10853 10854 10854 10856 10859
10573 10580 10587 10594 10602 10609 10614 10621 10629 10636 10642 10646 10650 10655 10660 10665 10671 10676 10679 10683 10687 10690 10694 10697 10699 10702 10708 10712 10711 10713 10717 10719 10721 10723 10725 10727 10729 10732 10733 10733 10734 10737 10740 10742 10744 10745 10746 10747 10748 10751 10757 10760 10758 10761 10768 10772 10774 10777 10782 10787 10793 10794 10794 10797 10800 10802 10805 10808 10810 10810 10811 10812 10816 10820 10823 10826 10830 10835 10839 10841 10843 10846 10848 10850 10851 10853 10857
10563 10570 10577 10584 10592 10598 10604 10611 10620 10627 10632 10636 10641 10647 10653 10658 10663 10667 10671 10675 10679 10682 10686 10689 10692 10697 10700 10701 10702 10706 10710 10712 10714 10716 10718 10720 10722 10724 10726 10727 10728 10731 10733 10735 10736 10738 10739 10740 10741 10746 10750 10750 10750 10755 10761 10764 10766 10771 10776 10781 10784 10786 10788 10792 10794 10795 10798 10801 10803 10804 10806 10808 10811 10815 10819 10822 10826 10830 10834 10836 10839 10841 10842 10845 10848 10851 10855
10554 10561 10567 10573 10581 10588 10594 10602 10610 10617 10622 10628 10634 10640 10646 10651 10654 10657 10661 10666 10671 10675 10679 10682 10686 10689 10691 10693 10697 10701 10702 10704 10706 10709 10711 10713 10715 10717 10719 10720 10721 10723 10726 10727 10729 10731 10732 10733 10735 10739 10742 10741 10743 10749 10754 10756 10760 10766 10770 10774 10777 10780 10783 10786 10788 10789 10792 10795 10797 10800 10802 10803 10805 10809 10814 10818 10820 10823 10827 10830 10833 10836 10838 10842 10846 10849 10851
10545 10552 10558 10564 10571 10577 10585 10593 10600 10607 10614 10620 10625 10631 10636 10639 10643 10648 10654 10660 10664 10668 10671 10675 10678 10681 10684 10688 10690 10692 10694 10696 10699 10701 10704 10706 10707 10709 10711 10712 10714 10716 10718 10720 10722 10723 10725 10726 10727 10730 10733 10734 10737 10742 10747 10750 10754 10759 10764 10768 10770 10773 10776 10779 10781 10783 10786 10788 10791 10794 10796 10797 10799 10803 10807 10811 10814 10817 10822 10827 10830 10832 10834 10838 10842 10844 10847
10536 10543 10549 10555 10561 10569 10576 10583 10590 10597 10605 10611 10616 10622 10627 10631 10635 10642 10648 10652 10656 10660 10664 10667 10670 10674 10678 10680 10682 10684 10687 10689 10692 10694 10697 10698 10700 10702 10703 10704 10706 10709 10711 10713 10714 10714 10716 10718 10719 10722 10726 10728 10730 10736 10741 10744 10747 10753 10759 10762 10763 10766 10770 10773 10774 10777 10779 10781 10785 10788 10790 10790 10793 10797 10801 10806 10809 10813 10818 10822 10825 10828 10831 10834 10836 10839 10841
10527 10534 10540 10546 10552 10559 10567 10574 10581 10589 10597 10603 10609 10615 10619 10622 10627 10633 10638 10643 10647 10652 10655 10658 10662 10667 10670 10672 10673 10676 10679 10681 10684 10687 10689 10691 10693 10694 10695 10697 10699 10701 10702 10704 10705 10706 10708 10710 10712 10716 10721 10722 10724 10730 10736 10738 10741 10748 10753 10754 10757 10761 10765 10766 10768 10770 10773 10776 10779 10782 10783 10785 10787 10791 10796 10801 10805 10808 10812 10816 10820 10824 10828 10830 10832 10835 10837
10519 10525 10531 10537 10543 10551 10558 10565 10573 10582 10589 10596 10601 10605 10608 10613 10619 10624 10630 10635 10640 10644 10647 10650 10655 10659 10661 10662 10665 10668 10671 10674 10677 10679 10681 10683 10685 10686 10687 10689 10692 10693 10693 10694 10696 10698 10701 10703 10705 10709 10713 10715 10718 10725 10730 10732 10736 10743 10746 10747 10751 10756 10757 10759 10761 10764 10766 10770 10773 10776 10777 10779 10783 10787 10791 10795 10799 10803 10807 10811 10816 10820 10823 10826 10829 10832 10835
10512 10517 10523 10529 10536 10543 10551 10558 10566 10575 10582 10588 10592 10596 10601 10606 10612 10617 10623 10628 10632 10635 10639 10644 10648 10650 10651 10654 10658 10662 10664 10667 10669 10671 10674 10675 10676 10677 10679 10681 10682 10683 10684 10686 10689 10691 10693 10695 10698 10702 10706 10710 10713 10718 10722 10726 10731 10736 10738 10741 10745 10748 10750 10752 10755 10757 10760 10763 10766 10769 10771 10774 10777 10781 10784 10788 10793 10797 10801 10805 10811 10815 10818 10821 10825 10829 10832
10505 10510 10516 10523 10530 10537 10545 10553 10560 10567 10573 10578 10583 10589 10594 10599 10604 10610 10615 10620 10624 10628 10632 10636 10638 10641 10644 10648 10651 10653 10656 10659 10661 10663 10665 10666 10667 10669 10671 10672 10673 10675 10677 10678 10680 10682 10683 10687 10691 10695 10699 10703 10707 10712 10717 10721 10725 10727 10730 10733 10737 10741 10744 10746 10748 10751 10754 10757 10759 10762 10765 10768 10772 10775 10778 10782 10787 10792 10796 10801 10806 10811 10815 10819 10824 10828 10832
10499 10505 10511 10518 10524 10532 10540 10547 10552 10558 10564 10570 10577 10583 10587 10592 10597 10603 10608 10612 10617 10620 10624 10627 10630 10633 10637 10640 10642 10645 10649 10652 10654 10655 10657 10658 10659 10661 10662 10663 10665 10668 10669 10670 10672 10674 10676 10680 10685 10689 10692 10697 10703 10708 10711 10713 10716 10719 10722 10726 10731 10735 10738 10740 10742 10745 10748 10750 10753 10756 10759 10762 10766 10769 10772 10777 10782 10786 10791 10797 10803 10808 10813 10818 10825 10832 10837
10495 10501 10506 10513 10519 10526 10533 10538 10544 10551 10558 10564 10569 10575 10580 10585 10590 10596 10600 10605 10609 10612 10616 10619 10621 10624 10628 10632 10635 10638 10642 10644 10645 10647 10649 10650 10651 10653 10654 10655 10657 10660 10661 10663 10665 10667 10669 10675 10680 10682 10684 10691 10699 10701 10702 10705 10709 10713 10716 10720 10725 10729 10732 10734 10736 10739 10742 10744 10747 10751 10754 10757 10760 10764 10768 10774 10779 10783 10789 10795 10800 10805 10811 10817 10824 10832 10837
10491 10496 10502 10508 10514 10519 10525 10531 10538 10544 10550 10556 10562 10568 10573 10579 10584 10589 10593 10597 10601 10605 10608 10610 10612 10617 10622 10625 10627 10630 10632 10634 10637 10639 10640 10642 10643 10645 10645 10647 10651 10653 10654 10656 10659 10661 10664 10670 10673 10675 10679 10688 10694 10695 10695 10700 10705 10708 10711 10715 10720 10723 10726 10728 10730 10733 10736 10739 10742 10746 10749 10752 10756 10761 10766 10771 10776 10781 10787 10792 10796 10802 10807 10812 10819 10826 10829
10486 10492 10497 10502 10508 10513 10519 10525 10531 10537 10543 10549 10555 10561 10567 10572 10577 10581 10585 10589 10592 10595 10598 10601 10606 10610 10613 10615 10618 10622 10624 10627 10629 10631 10632 10634 10635 10635 10637 10641 10645 10646 10647 10651 10655 10658 10661 10665 10668 10671 10678 10685 10688 10687 10690 10695 10700 10703 10706 10710 10714 10717 10720 10722 10725 10728 10732 10735 10738 10742 10746 10751 10756 10761 10765 10770 10774 10779 10784 10788 10793 10799 10803 10807 10813 10819 10820
10482 10486 10491 10496 10502 10507 10512 10518 10524 10531 10537 10543 10549 10555 10560 10565 10569 10572 10575 10579 10583 10587 10591 10595 10598 10601 10604 10608 10612 10615 10616 10618 10621 10622 10624 10626 10627 10629 10633 10637 10639 10639 10642 10648 10652 10653 10656 10661 10665 10670 10675 10678 10679 10681 10687 10692 10695 10698 10702 10705 10708 10712 10715 10717 10720 10725 10729 10732 10736 10741 10746 10752 10757 10762 10766 10770 10774 10778 10783 10787 10791 10796 10799 10801 10805 10811 10815
10477 10482 10487 10491 10496 10502 10508 10514 10520 10526 10532 10537 10542 10548 10552 10555 10559 10563 10568 10573 10577 10580 10583 10587 10591 10594 10598 10602 10604 10606 10607 10610 10613 10615 10617 10619 10621 10625 10629 10632 10633 10635 10640 10645 10647 10648 10652 10658 10664 10668 10670 10672 10674 10679 10684 10688 10691 10693 10696 10700 10704 10708 10710 10713 10718 10723 10726 10731 10736 10741 10746 10751 10756 10761 10765 10769 10773 10777 10781 10785 10787 10790 10794 10797 10798 10802 10809
10474 10479 10483 10488 10493 10499 10505 10510 10516 10521 10526 10530 10535 10539 10543 10546 10551 10557 10562 10566 10569 10572 10576 10580 10584 10588 10591 10594 10596 10598 10601 10604 10606 10608 10611 10614 10617 10620 10624 10626 10628 10632 10637 10640 10642 10645 10650 10656 10661 10664 10665 10668 10671 10675 10679 10682 10686 10689 10692 10696 10700 10703 10706 10711 10716 10720 10725 10730 10736 10741 10746 10750 10755 10759 10763 10767 10771 10773 10776 10779 10782 10785 10789 10792 10795 10798 10802
10472 10476 10481 10485 10490 10494 10500 10505 10510 10514 10519 10522 10527 10531 10535 10540 10545 10550 10554 10559 10563 10567 10572 10575 10578 10581 10584 10586 10589 10592 10594 10597 10600 10603 10606 10609 10613 10616 10619 10621 10625 10629 10633 10635 10637 10642 10648 10652 10655 10657 10659 10662 10666 10670 10673 10677 10680 10684 10688 10693 10696 10700 10704 10709 10714 10719 10725 10730 10735 10740 10745 10749 10752 10756 10760 10763 10767 10769 10772 10775 10778 10782 10786 10790 10793 10796 10798
10469 10473 10477 10480 10484 10489 10494 10499 10503 10507 10512 10516 10521 10525 10530 10535 10540 10545 10550 10554 10559 10563 10566 10569 10572 10575 10577 10580 10583 10586 10589 10592 10595 10598 10602 10606 10609 10612 10614 10617 10621 10625 10627 10629 10633 10638 10643 10645 10646 10648 10652 10656 10660 10664 10667 10671 10675 10680 10684 10688 10693 10697 10703 10709 10714 10719 10725 10730 10734 10739 10744 10748 10751 10756 10759 10762 10765 10768 10771 10774 10777 10781 10785 10788 10791 10794 10796
10465 10469 10473 10477 10481 10485 10489 10494 10498 10503 10507 10511 10516 10521 10526 10531 10536 10540 10545 10549 10553 10556 10558 10562 10565 10568 10571 10574 10577 10581 10584 10587 10591 10595 10599 10602 10605 10607 10610 10613 10616 10619 10621 10625 10629 10633 10635 10636 10638 10642 10646 10651 10655 10658 10662 10666 10672 10677 10681 10685 10691 10697 10703 10708 10714 10720 10725 10729 10734 10738 10743 10747 10752 10755 10758 10762 10766 10769 10773 10776 10779 10781 10784 10786 10789 10793 10796
10461 10465 10469 10473 10476 10480 10485 10490 10494 10498 10502 10507 10514 10519 10523 10526 10530 10535 10539 10543 10547 10550 10553 10557 10560 10563 10566 10569 10573 10576 10580 10584 10588 10592 10595 10597 10600 10603 10606 10608 10611 10614 10617 10621 10625 10627 10627 10629 10633 10638 10642 10646 10651 10654 10658 10663 10669 10674 10679 10684 10690 10696 10702 10709 10716 10722 10727 10730 10733 10738 10743 10747 10752 10756 10759 10762 10766 10769 10773 10777 10779 10781 10783 10786 10789 10793 10796
10457 10461 10465 10468 10472 10477 10482 10486 10490 10494 10501 10507 10512 10515 10517 10521 10526 10531 10535 10538 10541 10545 10549 10553 10556 10559 10563 10566 10570 10574 10578 10581 10584 10588 10591 10593 10595 10598 10600 10603 10606 10610 10613 10617 10621 10622 10622 10625 10630 10635 10638 10642 10646 10651 10655 10661 10666 10672 10677 10683 10688 10694 10701 10707 10714 10720 10726 10730 10734 10739 10744 10748 10752 10756 10760 10763 10766 10769 10772 10775 10779 10781 10783 10786 10790 10793 10795
10454 10457 10461 10466 10470 10475 10479 10483 10488 10493 10498 10502 10503 10506 10510 10516 10522 10527 10530 10534 10538 10542 10546 10549 10552 10556 10559 10563 10566 10570 10574 10577 10580 10583 10585 10587 10590 10593 10596 10600 10603 10606 10609 10613 10616 10618 10619 10622 10626 10631 10634 10638 10642 10647 10653 10658 10664 10669 10675 10681 10686 10692 10698 10703 10707 10713 10721 10727 10733 10738 10744 10749 10752 10756 10760 10763 10766 10768 10770 10773 10777 10780 10783 10786 10788 10790 10792
10451 10455 10459 10463 10468 10472 10476 10480 10485 10488 10492 10495 10499 10505 10511 10516 10520 10523 10527 10531 10535 10539 10542 10546 10550 10553 10556 10559 10563 10566 10569 10572 10575 10577 10580 10584 10587 10591 10594 10597 10599 10602 10605 10609 10612 10614 10616 10619 10623 10627 10631 10635 10639 10644 10650 10656 10661 10667 10672 10678 10683 10688 10694 10699 10704 10709 10715 10722 10730 10738 10744 10748 10752 10756 10760 10763 10766 10767 10767 10769 10773 10777 10781 10784 10786 10787 10787
10450 10454 10458 10462 10465 10469 10473 10478 10482 10486 10491 10496 10501 10505 10509 10512 10516 10520 10525 10529 10532 10536 10539 10543 10546 10549 10552 10555 10558 10561 10564 10567 10571 10574 10578 10582 10586 10588 10590 10592 10595 10598 10601 10604 10607 10610 10612 10616 10620 10624 10628 10632 10637 10642 10647 10653 10659 10664 10669 10674 10680 10685 10690 10696 10701 10707 10712 10718 10727 10737 10743 10746 10748 10752 10757 10761 10765 10766 10767 10769 10773 10776 10778 10780 10782 10784 10786